K9UO Weather Reports


time (UTC)temp
F
wind
direction
speed
knots
gust
knots
rain 1hr
in
rain 24hr
in
rain mn
in
humidity
%
barometer
mb
20260509194550 71 360 7.8 15.6 0.00 0.05 0.00 52 1005.5
20260509193052 71 360 7.0 13.9 0.00 0.05 0.00 52 1005.7
20260509191553 70 190 8.7 13.9 0.00 0.05 0.00 53 1005.8
20260509190038 69 360 7.0 15.6 0.00 0.05 0.00 52 1005.9
20260509184535 69 360 9.6 17.4 0.00 0.05 0.00 52 1006.1
20260509183028 69 360 8.7 13.9 0.00 0.05 0.00 51 1005.9
20260509181524 68 360 8.7 13.0 0.00 0.05 0.00 47 1005.9
20260509180020 68 360 7.8 13.0 0.00 0.05 0.00 44 1006.0
20260509174515 67 360 7.8 13.0 0.00 0.05 0.00 44 1006.1
20260509173010 66 360 7.0 15.6 0.00 0.05 0.00 43 1006.3
20260509171506 66 360 7.8 13.9 0.00 0.05 0.00 36 1006.4
20260509170002 66 360 7.8 15.6 0.00 0.05 0.00 39 1006.5
20260509164607 65 360 7.0 13.9 0.00 0.05 0.00 30 1006.7
20260509163052 64 360 7.0 15.6 0.00 0.05 0.00 29 1006.8
20260509161556 64 360 8.7 13.0 0.00 0.05 0.00 22 1006.6
20260509160045 64 248 7.8 12.2 0.00 0.05 0.00 23 1006.6
20260509154539 64 360 7.8 13.0 0.00 0.05 0.00 20 1006.6
20260509153037 63 200 7.8 13.0 0.00 0.05 0.00 21 1006.5
20260509151531 61 360 7.8 11.3 0.00 0.05 0.00 3 1006.6
20260509150027 60 360 6.1 10.4 0.00 0.05 0.00 1 1006.7
20260509144531 59 360 6.1 13.0 0.00 0.05 0.00 1 1006.7
20260509143018 59 360 7.0 10.4 0.00 0.05 0.00 1 1006.6
20260509141513 58 235 7.0 10.4 0.00 0.05 0.00 1 1006.5
20260509140008 57 251 5.2 11.3 0.00 0.05 0.00 1 1006.5
20260509134504 56 247 3.5 10.4 0.00 0.05 0.00 1 1006.5
20260509133105 57 246 2.6 7.8 0.00 0.05 0.00 1 1006.5
20260509131559 57 235 4.3 7.8 0.00 0.05 0.00 1 1006.4
20260509130100 57 360 6.1 7.8 0.00 0.05 0.00 1 1006.7
20260509124546 56 360 6.1 8.7 0.00 0.05 0.00 1 1006.8
20260509123047 56 213 4.3 8.7 0.00 0.05 0.00 1 1006.9
20260509121538 56 360 3.5 7.0 0.00 0.05 0.00 1 1006.9
20260509120035 56 360 2.6 6.1 0.00 0.05 0.00 1 1006.8
20260509114529 56 212 3.5 7.0 0.00 0.05 0.00 1 1006.7
20260509113025 55 230 4.3 8.7 0.00 0.05 0.00 1 1006.7
20260509111520 55 213 4.3 8.7 0.00 0.05 0.00 1 1006.7
20260509110020 55 222 5.2 7.8 0.00 0.05 0.00 1 1006.7
20260509104512 55 360 4.3 7.0 0.00 0.05 0.00 1 1006.7
20260509103009 55 221 3.5 7.8 0.00 0.05 0.00 1 1006.6
20260509101506 55 217 4.3 7.0 0.00 0.05 0.00 1 1006.4
20260509100059 55 216 5.2 7.8 0.00 0.05 0.00 1 1006.5
20260509094554 55 208 2.6 7.0 0.00 0.05 0.00 1 1006.3
20260509093050 55 221 4.3 6.1 0.00 0.05 0.00 1 1006.4
20260509091546 55 360 3.5 7.0 0.00 0.05 0.00 1 1006.5
20260509090046 55 214 2.6 5.2 0.00 0.05 0.00 1 1006.4
20260509084541 55 200 2.6 5.2 0.00 0.05 0.00 1 1006.5
20260509083039 55 219 1.7 7.0 0.00 0.05 0.00 1 1006.6
20260509081536 55 219 4.3 6.1 0.00 0.05 0.00 1 1006.8
20260509080035 55 210 4.3 7.0 0.00 0.05 0.00 1 1006.9
20260509074523 55 219 4.3 7.0 0.00 0.05 0.00 1 1006.9
20260509073019 55 360 3.5 6.1 0.00 0.05 0.00 1 1007.2
20260509071514 55 360 3.5 7.0 0.00 0.05 0.00 1 1007.3
20260509070012 55 219 4.3 7.0 0.00 0.05 0.00 1 1007.3
20260509064505 55 248 3.5 7.8 0.00 0.05 0.00 1 1007.6
20260509063100 55 211 4.3 8.7 0.00 0.05 0.00 1 1007.7
20260509061614 55 215 4.3 7.0 0.00 0.05 0.00 1 1007.8
20260509060109 55 360 4.3 7.0 0.00 0.05 0.00 1 1007.9
20260509054550 55 211 4.3 8.7 0.00 0.05 0.00 1 1008.2
20260509053042 55 360 5.2 8.7 0.00 0.05 0.00 1 1008.2
20260509051538 55 360 4.3 7.0 0.00 0.05 0.00 1 1008.2
20260509050052 55 360 4.3 8.7 0.00 0.05 0.00 1 1008.3
20260509044528 55 231 3.5 6.1 0.00 0.05 0.00 1 1008.2
20260509043025 55 360 2.6 7.8 0.00 0.05 0.00 1 1008.2
20260509041520 55 216 3.5 6.1 0.00 0.05 0.00 1 1008.2
20260509040016 55 360 4.3 8.7 0.00 0.05 0.00 1 1008.3
20260509034511 55 200 2.6 7.8 0.00 0.05 0.05 1 1008.4
20260509033007 55 219 5.2 7.8 0.00 0.05 0.05 1 1008.5
20260509031503 55 216 3.5 8.7 0.00 0.05 0.05 1 1008.7
20260509030007 55 202 2.6 7.0 0.00 0.05 0.05 1 1008.6
20260509024501 55 213 2.6 6.1 0.00 0.05 0.05 1 1008.8
20260509023001 55 213 1.7 7.0 0.00 0.05 0.05 1 1008.9
20260509021502 55 196 3.5 7.0 0.00 0.05 0.05 1 1008.8
20260509020001 55 219 2.6 7.0 0.00 0.05 0.05 1 1008.8
20260509014601 55 217 2.6 7.0 0.01 0.05 0.05 1 1008.7
20260509013101 55 360 3.5 6.1 0.01 0.05 0.05 1 1008.7
20260509011551 55 360 3.5 7.0 0.01 0.05 0.05 1 1008.7
20260509010049 55 211 4.3 7.0 0.01 0.05 0.05 1 1008.8
20260509004543 55 209 0.9 3.5 0.00 0.04 0.04 1 1008.7
20260509003050 55 360 1.7 4.3 0.00 0.04 0.04 1 1008.8
20260509001534 55 360 1.7 5.2 0.00 0.04 0.04 1 1008.9
20260509000037 55 211 0.9 3.5 0.00 0.04 0.04 1 1008.9
20260508234534 54 210 0.9 2.6 0.01 0.04 0.04 1 1008.8
20260508233020 54 360 0.9 2.6 0.02 0.04 0.04 1 1008.8
20260508231516 54 209 1.7 5.2 0.02 0.04 0.04 1 1008.8
20260508230012 54 214 3.5 6.1 0.02 0.04 0.04 1 1008.8
20260508224507 54 360 0.9 5.2 0.01 0.03 0.03 1 1009.2
20260508223007 53 232 1.7 2.6 0.00 0.02 0.02 1 1009.2
20260508221506 54 331 0.0 3.5 0.01 0.02 0.02 1 1009.1
20260508220001 53 10 2.6 5.2 0.01 0.02 0.02 1 1009.0
20260508214608 54 5 0.9 5.2 0.02 0.02 0.02 1 1009.1
20260508213053 55 259 1.7 5.2 0.02 0.02 0.02 1 1009.4
20260508211549 57 13 1.7 4.3 0.01 0.01 0.01 1 1009.3
20260508210045 58 19 0.9 5.2 0.01 0.01 0.01 1 1009.2
20260508204542 59 360 2.6 7.0 0.00 0.00 0.00 20 1009.4
20260508203039 59 254 2.6 7.0 0.00 0.00 0.00 26 1009.3
20260508201637 60 306 0.9 5.2 0.00 0.00 0.00 29 1009.4